Regional Weather Roundup
Issued by NWS Sterling, VA

Home | Current Version | Previous Version | Graphics & Text | Print | Product List | Glossary On
Versions: 1 2 3 4 5 6 7 8 9 10 11 12 13 14 15 16 17 18 19 20 21 22 23 24 25 26 27 28
000
ASUS41 KLWX 250611
RWRLWX

REGIONAL WEATHER ROUNDUP
NATIONAL WEATHER SERVICE BALTIMORE MD/WASHINGTON DC
200 AM EDT SUN JUN 25 2017

Note: "FAIR" indicates few or no clouds below 12,000 feet
with no significant weather and/or obstructions to visibility.
 TC=TEMPERATURE CELSIUS

 * =Non NWS site. Station does not report precipitation (e.g. rain,
    snow, etc.), thunder, or fog.

DCZ001-MDZ009-015-VAZ040>042-051-053>054-250700-
WASHINGTON METRO

CITY           SKY/WX    TMP DP  RH WIND       PRES   REMARKS
WASHINGTON NAT PTCLDY    79  57  46 W6        29.97S
DULLES         PTCLDY    69  59  70 CALM      29.99R
ANDREWS AFB    CLEAR     68  61  79 SW5       29.96S
FT BELVOIR     PTCLDY    65  62  91 CALM      29.97S
QUANTICO       MOCLDY    73  62  68 NW5       29.98S
COLLEGE PARK*  CLEAR     66  61  84 CALM      29.96S
LEESBURG*      CLOUDY   N/A N/A N/A NW6       30.00R
MANASSAS*      CLEAR     64  63  96 CALM      29.99R
GAITHERSBURG*  MOCLDY    69  60  73 CALM      30.00S

$$

MDZ006>007-011-014-250700-
BALTIMORE METRO

CITY           SKY/WX    TMP DP  RH WIND       PRES   REMARKS
BWI AIRPORT    PTCLDY    70  61  73 W5        29.96S
MD SCIENCE CTR   N/A     78  60  53 MISG      29.95F
MARTIN STATE   CLEAR     73  61  64 W3        29.96S
ANNAPOLIS      CLEAR     71  69  93 NW3       29.94F
FORT MEADE*    CLEAR     63  61  94 CALM      29.98S

$$

MDZ012-015-019>023-250700-
MARYLAND EASTERN SHORE

CITY           SKY/WX    TMP DP  RH WIND       PRES   REMARKS
OCEAN CITY     PTCLDY    71  69  93 CALM      29.95F
SALISBURY      PTCLDY    68  66  93 CALM      29.95S
BAY BRIDGE AP* CLEAR     75  63  64 NW7       29.95S
CAMBRIDGE*     CLEAR     66  64  94 CALM      29.95S
EASTON*        CLEAR     69  64  84 CALM      29.99S

$$

MDZ017>025-250700-
SOUTHERN MARYLAND

CITY           SKY/WX    TMP DP  RH WIND       PRES   REMARKS
PATUXENT RIVER CLEAR     69  63  81 W5        29.95S
ST INIGOES     CLEAR     68  66  93 CALM      29.95S
LEONARDTOWN*   NOT AVBL

$$

MDZ003>005-250700-
NORTH CENTRAL MARYLAND

CITY           SKY/WX    TMP DP  RH WIND       PRES   REMARKS
FREDERICK*     MOCLDY    68  66  94 CALM      30.02S
HAGERSTOWN APT CLEAR     72  59  63 SW5       30.00S
WESTMINSTER*   CLEAR     72  61  68 W5        29.99S

$$

MDZ501>502-250700-
WESTERN MARYLAND

CITY           SKY/WX    TMP DP  RH WIND       PRES   REMARKS
OAKLAND*       NOT AVBL
CUMBERLAND*    PTCLDY    63  61  94 CALM      30.07S

$$

VAZ025>031-250700-
SHENANDOAH VALLEY

CITY           SKY/WX    TMP DP  RH WIND       PRES   REMARKS
WINCHESTER*    MOCLDY    64  57  77 CALM      30.02R
FRONT ROYAL*   CLOUDY    66  57  72 S7        30.02R
LURAY*         CLEAR     63  61  94 CALM      30.04R
NEW MARKET*    MOCLDY    61  57  87 CALM      30.04S
STAUNTON*      CLEAR     59  56  91 CALM      30.08R
WAYNESBORO*    CLEAR     60  58  93 S12       30.07S

$$

WVZ021-048>050-054>055-250700-
EASTERN WEST VIRGINIA PANHANDLE

CITY           SKY/WX    TMP DP  RH WIND       PRES   REMARKS
MARTINSBURG    PTCLDY    67  58  72 SW3       30.00S
PETERSBURG*    PTCLDY    62  61  96 CALM      30.06S

$$

VAZ036>039-050-250700-
CENTRAL FOOTHILLS

CITY           SKY/WX    TMP DP  RH WIND       PRES   REMARKS
CHARLOTTESVILL CLEAR     67  62  84 CALM      30.00S
CULPEPER*      CLEAR     66  64  94 CALM      30.00S
ORANGE*        CLEAR     64  61  88 CALM      30.00R
GORDONSVILLE*  CLEAR     65  62  90 CALM      30.00S
WARRENTON*     PTCLDY    64  60  87 CALM      29.98S

$$

VAZ055>057-250700-
NORTH AND CENTRAL PIEDMONT

CITY           SKY/WX    TMP DP  RH WIND       PRES   REMARKS
FREDERICKSBRG* PTCLDY    69  64  86 CALM      29.98R
STAFFORD*      MOCLDY    64  64 100 CALM      30.02S

$$

NCZ024-NYZ072-PAZ021-071-VAZ022-071-250700-
OTHER REGIONAL OBSERVATIONS

CITY           SKY/WX    TMP DP  RH WIND       PRES   REMARKS
NEW YORK CITY  MOCLDY    73  58  59 VRB5      29.94F
PHILADELPHIA   PTCLDY    74  61  63 W8        29.93S
PITTSBURGH     MOCLDY    64  57  78 SW3       30.02R
ROANOKE        CLEAR     65  58  78 CALM      30.08R
RICHMOND       PTCLDY    77  70  79 SW8       29.98S
RALEIGH        CLOUDY    71  70  96 CALM      30.04R

$$

ANZ530>537-250700-
MARINE OBSERVATIONS

STATION/POSITION TIME  TEMP    WIND        PRES
                       AIR SEA DIR/SP/G
                 (UTC) (F)     (DEG/KT/KT) (MB)
THOMAS PT LIGHT  0600   76 78  300/  7/  9   N/A
BALT KEY BRIDGE  0548          280/  6/  7 1013.9S
COVE POINT       0548          260/  3/  4 1014.8F
LEWISETTA        0548          260/  2/  2 1014.1S
SOLOMONS ISLAND  0536           CALM  /  2   N/A
PINEY POINT      0548           20/  3/  4   N/A

$$





USA.gov is the U.S. government's official web portal to all federal, state and local government web resources and services.